Погода в Басре

Ирак     30°37′13″N   47°44′01″E
темп.,
°C
ветер,
м/с
пор.,
м/с
влажн.,
%
обл.,
%
осадки,
мм/ч
давл.,
гПа
погр.,
м
18 апреля, вс
вс1800:00+28зсз61216100 0.0 1011326
03:00+25зсз6112032 0.0 1011236
06:00+25зсз714230 0.0 1012345
09:00+32сз1114150 0.0 10131172
12:00+37сз1010100 0.0 10112752
15:00+38сз9980 0.0 10093683
18:00+36сз811983 0.0 10091090
21:00+33сз7141127 0.0 1011485
19 апреля, пн
пн1900:00+30сз7141529 0.0 1011364
03:00+28зсз612190 0.0 1010286
06:00+27зсз612220 0.0 1011239
09:00+34сз1115160 0.0 10111256
12:00+39сз1213119 0.0 10092915
15:00+39сз111292 0.0 10072957
18:00+37сз9111288 0.0 1007869
21:00+33сз6111525 0.0 1008352
20 апреля, вт
вт2000:00+31сз5719100 0.0 1008142
03:00+29зсз4621100 0.0 1007101
06:00+28зсз442310 0.0 100873
09:00+34зсз34165 0.0 1009428
12:00+38з2111100 0.0 10081588
15:00+40сз129100 0.0 10061974
18:00+39вюв2210100 0.0 1006210
21:00+35ююз5613100 0.0 1007108
21 апреля, ср
ср2100:00+32ююз461591 0.0 100796
03:00+31юз3415100 0.0 100767
06:00+31ююв3316100 0.0 100936
09:00+35ю2212100 0.0 1010328
12:00+40ююз11930 0.0 10081291
15:00+42св1276 0.0 10073492
18:00+40юв66948 0.0 1007245
21:00+35ююз5812100 0.0 1008147
22 апреля, чт
чт2200:00+34юз4612100 0.0 1008126
03:00+32юз451290 0.0 100884
06:00+31ююз3412100 0.0 100970
09:00+36юз349100 0.0 1010414
12:00+40ю117100 0.0 1009928
15:00+42св12691 0.0 10072856
18:00+40вюв3370 0.0 1007199
21:00+35ююз57125 0.0 1008123